Weather History for Hermiston, OR

Change the Weather History Date:

Sunday, August 24, 2014

  Actual Average Record
Temperature  
Mean Temperature 69 °F -  
Max Temperature 87 °F 83 °F 101 °F (1970)
Min Temperature 51 °F 55 °F 41 °F (1929)
Cooling Degree Days 4    
Growing Degree Days 19 (Base 50)    
Moisture  
Dew Point 49 °F    
Average Humidity 54    
Maximum Humidity 83    
Minimum Humidity 25    
Precipitation  
Precipitation 0.00 in - - ()
Sea Level Pressure  
Sea Level Pressure 29.90 in    
Wind  
Wind Speed 5 mph (East)    
Max Wind Speed 14 mph    
Max Gust Speed -    
Visibility 10 miles    
Events      
Averages and records for this station are not official NWS values.
T = Trace of Precipitation, MM = Missing Value Source: NWS Daily Summary

Daily Weather History Graph

Daily Weather History Graph

Search for Another Location

Airport:

Trip Planner

Search our weather history database for the weather conditions in past years. The results will help you decide how hot, cold, wet, or windy it might be!

Date:

Astronomy

Aug. 24, 2014 Rise Set
Actual Time 6:08 AM PDT 7:49 PM PDT
Civil Twilight 5:36 AM PDT 8:21 PM PDT
Nautical Twilight 4:58 AM PDT 8:59 PM PDT
Astronomical Twilight 4:16 AM PDT 9:40 PM PDT
Moon 5:23 AM PDT (8/24) 7:08 PM PDT (8/24)
Length of Visible Light 14h 44m
Length of Day
13h 41m
Waning Crescent, 1% of the Moon is Illuminated
Aug 24
Waning Crescent
Aug 25
New
Sep 2
First Quarter
Sep 8
Full
Sep 15
Last Quarter

Hourly Weather History & Observations

Time (PDT) Temp. Dew Point Humidity Pressure Visibility Wind Dir Wind Speed Gust Speed Precip Events Conditions
12:53 AM 59.0 °F 48.9 °F 69% 29.96 in 10.0 mi SE 4.6 mph - N/A   Clear
1:53 AM 57.0 °F 48.0 °F 72% 29.95 in 10.0 mi ESE 4.6 mph - N/A   Clear
2:53 AM 54.0 °F 48.0 °F 80% 29.95 in 10.0 mi Calm Calm - N/A   Clear
3:53 AM 53.1 °F 46.9 °F 80% 29.94 in 10.0 mi SE 3.5 mph - N/A   Clear
4:53 AM 53.1 °F 46.9 °F 80% 29.93 in 10.0 mi Calm Calm - N/A   Clear
5:53 AM 51.1 °F 46.0 °F 83% 29.93 in 10.0 mi East 4.6 mph - N/A   Clear
6:53 AM 55.0 °F 46.9 °F 74% 29.94 in 10.0 mi Calm Calm - N/A   Clear
7:53 AM 62.1 °F 48.0 °F 60% 29.94 in 10.0 mi SSW 3.5 mph - N/A   Clear
8:53 AM 66.9 °F 48.0 °F 51% 29.93 in 10.0 mi Calm Calm - N/A   Clear
9:53 AM 72.0 °F 48.0 °F 43% 29.92 in 10.0 mi Variable 3.5 mph - N/A   Clear
10:53 AM 75.0 °F 48.9 °F 40% 29.92 in 10.0 mi North 5.8 mph - N/A   Clear
11:53 AM 78.1 °F 50.0 °F 37% 29.91 in 10.0 mi North 8.1 mph - N/A   Clear
12:53 PM 82.0 °F 46.9 °F 29% 29.87 in 10.0 mi Variable 5.8 mph - N/A   Clear
1:53 PM 84.0 °F 46.9 °F 27% 29.85 in 10.0 mi North 5.8 mph - N/A   Clear
2:53 PM 87.1 °F 48.9 °F 27% 29.83 in 10.0 mi ENE 11.5 mph - N/A   Clear
3:53 PM 87.1 °F 46.9 °F 25% 29.83 in 10.0 mi ENE 13.8 mph - N/A   Clear
4:53 PM 87.1 °F 46.9 °F 25% 29.83 in 10.0 mi NE 11.5 mph - N/A   Clear
5:53 PM 80.1 °F 50.0 °F 35% 29.84 in 10.0 mi NE 12.7 mph - N/A   Mostly Cloudy
7:53 PM 71.1 °F 50.0 °F 47% 29.87 in 10.0 mi West 4.6 mph - N/A   Clear
8:53 PM 66.9 °F 51.1 °F 57% 29.89 in 10.0 mi South 5.8 mph - N/A   Clear
10:53 PM 62.1 °F 52.0 °F 70% 29.91 in 10.0 mi SSW 6.9 mph - N/A   Scattered Clouds
11:53 PM 61.0 °F 53.1 °F 75% 29.91 in 10.0 mi South 5.8 mph - N/A   Partly Cloudy